Waarnemingen

Advertentie
Mijn weer
Bierset/Liege, België (6478): temperatuur & dauwpunt: 16.01.2020 01:00:00 - 22.01.2020 01:00:00 (CET)Bierset/Liege, België (6478): windsnelheid & windstoten: 16.01.2020 01:00:00 - 22.01.2020 01:00:00 (CET)Bierset/Liege, België (6478): windrichting: 16.01.2020 01:00:00 - 22.01.2020 01:00:00 (CET)Bierset/Liege, België (6478): luchtdruk: 16.01.2020 01:00:00 - 22.01.2020 01:00:00 (CET)Bierset/Liege, België (6478): zicht: 16.01.2020 01:00:00 - 22.01.2020 01:00:00 (CET)
Datum & Tijd tt [°C] td [°C] ff [km/u] ff [kn] fx [km/u] fx [kn] dd ppp [hPa] vv [km]
22.01.2020 01:00:00 -3,3 -3,9 8 4 - - N 1039,4 3,3
22.01.2020 00:00:00 -0,5 -2,6 2 1 18 10 - 1039,2 10
21.01.2020 23:00:00 -1,3 -2,5 13 7 18 10 ZZO 1039,7 7
21.01.2020 22:00:00 -0,3 -2,0 4 2 - - - 1040,3 8
21.01.2020 21:00:00 -0,2 -2,1 4 2 7 4 NNO 1040,5 5
21.01.2020 20:00:00 -0,8 -1,6 4 2 7 4 N 1040,6 7
21.01.2020 19:00:00 0,1 -1,8 4 2 - - - 1040,7 10
21.01.2020 18:00:00 1,1 -2,0 4 2 7 4 N 1041,0 10
21.01.2020 17:00:00 2,3 -1,4 5 3 11 6 NNO 1041,0 10
21.01.2020 16:00:00 3,9 -1,7 5 3 - - NNW 1041,1 10
21.01.2020 15:00:00 4,2 -1,5 4 2 7 4 - 1041,5 10
21.01.2020 14:00:00 4,3 -0,3 5 3 7 4 NW 1041,9 10
21.01.2020 13:00:00 3,2 -1,2 2 1 - - - 1042,8 10
21.01.2020 12:00:00 2,5 -1,8 4 2 18 10 - 1043,4 10
21.01.2020 11:00:00 0,2 -1,3 4 2 14 8 - 1043,7 10
21.01.2020 10:00:00 -1,9 -2,6 0 0 - - N 1043,7 6
21.01.2020 09:00:00 -3,2 -4,4 8 4 25 14 ZZO 1043,7 8
21.01.2020 08:00:00 -2,2 -3,8 4 2 14 8 - 1043,6 10
21.01.2020 07:00:00 -2,6 -3,6 4 2 - - - 1043,5 8
21.01.2020 06:00:00 -2,1 -3,3 4 2 29 16 - 1043,7 10
21.01.2020 05:00:00 -2,6 -3,0 2 1 18 10 - 1044,1 3,5
21.01.2020 04:00:00 -1,6 -2,7 2 1 - - - 1044,3 2,2
21.01.2020 03:00:00 -2,1 -2,7 5 3 11 6 ZO 1045,1 1,5
21.01.2020 02:00:00 -1,7 -1,8 5 3 22 12 ZZO 1045,3 2,0
21.01.2020 01:00:00 -1,5 -1,8 8 4 - - ZZO 1046,1 0,1
21.01.2020 00:00:00 -1,0 -1,0 2 1 11 6 - 1046,4 0,1
20.01.2020 23:00:00 0,4 0,4 2 1 7 4 - 1046,4 0,2
20.01.2020 22:00:00 1,1 1,0 5 3 - - NO 1046,5 0,1
20.01.2020 21:00:00 2,2 1,7 8 4 14 8 NO 1046,2 0,3
20.01.2020 20:00:00 2,7 2,0 9 5 14 8 NO 1046,3 1,8
20.01.2020 19:00:00 2,7 2,0 9 5 - - NNO 1046,7 2,6
20.01.2020 18:00:00 2,9 2,0 9 5 11 6 NNO 1046,4 3,7
20.01.2020 17:00:00 3,3 2,0 8 4 11 6 N 1046,7 4,5
20.01.2020 16:00:00 3,8 2,3 9 5 - - N 1047,0 6
20.01.2020 15:00:00 4,6 2,5 5 3 14 8 N 1047,4 7
20.01.2020 14:00:00 4,3 2,8 11 6 14 8 NNW 1048,2 4,7
20.01.2020 13:00:00 3,2 2,0 2 1 - - - 1048,4 4,2
20.01.2020 12:00:00 2,4 1,6 9 5 14 8 OZO 1049,1 1,8
20.01.2020 11:00:00 2,3 1,9 5 3 11 6 NNW 1049,4 0,2
20.01.2020 10:00:00 2,1 1,8 4 2 - - - 1048,9 0,3
20.01.2020 09:00:00 1,5 1,5 2 1 14 8 - 1048,3 0,1
20.01.2020 08:00:00 1,6 1,2 4 2 7 4 - 1048,2 0,2
20.01.2020 07:00:00 1,4 1,4 2 1 - - - 1048,1 0,1
20.01.2020 06:00:00 1,7 1,6 4 2 11 6 - 1047,9 0,1
20.01.2020 05:00:00 1,0 1,0 2 1 14 8 - 1047,8 0,1
20.01.2020 04:00:00 0,8 0,8 2 1 - - - 1047,6 0,2
20.01.2020 03:00:00 1,2 0,6 2 1 11 6 - 1047,6 4,0
20.01.2020 02:00:00 0,0 -0,8 0 0 11 6 N 1047,9 4,0
20.01.2020 01:00:00 -0,2 -0,5 4 2 - - NNW 1047,6 6
20.01.2020 00:00:00 0,4 -0,2 2 1 7 4 N 1047,4 6
19.01.2020 23:00:00 0,5 0,1 5 3 7 4 N 1046,9 5
19.01.2020 22:00:00 1,7 0,4 4 2 - - N 1046,3 8
19.01.2020 21:00:00 1,6 0,7 4 2 7 4 NNW 1045,7 8
19.01.2020 20:00:00 2,3 1,1 4 2 11 6 NO 1044,8 10
19.01.2020 19:00:00 2,8 1,5 8 4 - - N 1044,3 10
19.01.2020 18:00:00 4,1 2,2 8 4 22 12 N 1043,4 10
19.01.2020 17:00:00 4,5 2,0 13 7 25 14 N 1042,4 10
19.01.2020 16:00:00 5,1 1,9 15 8 - - N 1041,3 10
19.01.2020 15:00:00 4,8 2,1 16 9 25 14 N 1040,4 10
19.01.2020 14:00:00 4,8 2,1 15 8 25 14 N 1040,2 10
19.01.2020 13:00:00 4,1 2,4 13 7 - - N 1039,8 10
19.01.2020 12:00:00 3,3 1,9 13 7 18 10 NNW 1039,7 8
19.01.2020 11:00:00 2,2 1,0 11 6 14 8 NW 1039,3 10
19.01.2020 10:00:00 1,1 -0,1 8 4 - - WNW 1038,2 10
19.01.2020 09:00:00 0,7 -0,4 8 4 11 6 WNW 1037,2 9
19.01.2020 08:00:00 0,7 -0,3 5 3 11 6 WNW 1036,2 8
19.01.2020 07:00:00 0,4 -0,7 5 3 - - WNW 1035,7 7
19.01.2020 06:00:00 -0,1 -0,9 8 4 14 8 W 1035,2 7
19.01.2020 05:00:00 0,3 -0,5 8 4 11 6 W 1034,7 10
19.01.2020 04:00:00 0,4 -0,6 5 3 - - WNW 1034,1 10
19.01.2020 03:00:00 0,5 -0,4 9 5 14 8 W 1033,6 10
19.01.2020 02:00:00 0,0 -1,0 9 5 14 8 W 1032,9 10
19.01.2020 01:00:00 0,1 -1,0 9 5 - - W 1032,4 10
19.01.2020 00:00:00 0,4 -0,7 8 4 14 8 W 1032,1 10
18.01.2020 23:00:00 0,4 -0,7 9 5 14 8 W 1031,5 10
18.01.2020 22:00:00 1,6 -0,3 9 5 - - WNW 1031,0 10
18.01.2020 21:00:00 1,3 -0,3 9 5 14 8 W 1030,6 10
18.01.2020 20:00:00 1,7 0,5 11 6 18 10 W 1030,2 10
18.01.2020 19:00:00 2,5 0,7 11 6 - - W 1029,3 10
18.01.2020 18:00:00 2,9 0,5 11 6 22 12 W 1028,7 10
18.01.2020 17:00:00 4,0 1,0 15 8 22 12 WZW 1027,8 10
18.01.2020 16:00:00 4,6 1,2 15 8 - - W 1027,3 10
18.01.2020 15:00:00 5,1 1,4 21 11 29 16 W 1026,9 10
18.01.2020 14:00:00 5,5 1,9 21 11 29 16 W 1026,7 10
18.01.2020 13:00:00 4,8 1,8 21 11 - - WZW 1026,8 10
18.01.2020 12:00:00 4,8 1,9 18 10 29 16 WZW 1026,8 10
18.01.2020 11:00:00 4,2 1,9 18 10 29 16 WZW 1026,4 10
18.01.2020 10:00:00 3,7 2,0 15 8 - - WZW 1025,8 10
18.01.2020 09:00:00 3,4 1,9 18 10 25 14 ZW 1025,0 10
18.01.2020 08:00:00 3,1 1,8 16 9 29 16 ZW 1024,5 10
18.01.2020 07:00:00 3,3 1,9 18 10 - - ZW 1024,0 10
18.01.2020 06:00:00 3,5 1,3 24 13 36 19 ZW 1023,6 10
18.01.2020 05:00:00 3,3 1,2 24 13 36 19 ZW 1023,4 10
18.01.2020 04:00:00 3,3 0,9 22 12 - - ZZW 1023,2 10
18.01.2020 03:00:00 3,2 1,1 22 12 29 16 ZZW 1023,3 10
18.01.2020 02:00:00 3,6 1,2 18 10 36 19 ZZW 1023,1 10
18.01.2020 01:00:00 3,8 1,3 22 12 - - ZW 1022,5 10
18.01.2020 00:00:00 4,1 1,9 22 12 32 18 ZW 1022,0 10
17.01.2020 23:00:00 3,9 1,9 21 11 32 18 ZW 1021,6 10
17.01.2020 22:00:00 4,5 2,2 24 13 - - ZW 1021,0 10
17.01.2020 21:00:00 4,8 2,4 21 11 32 18 WZW 1020,3 10
17.01.2020 20:00:00 5,3 2,5 22 12 36 19 WZW 1019,7 10
17.01.2020 19:00:00 6,5 3,5 26 14 - - WZW 1018,7 10
17.01.2020 18:00:00 7,7 3,8 26 14 43 23 WZW 1017,5 10
17.01.2020 17:00:00 7,6 5,1 18 10 36 19 ZW 1016,7 10
17.01.2020 16:00:00 8,8 6,7 22 12 - - ZW 1015,9 10
17.01.2020 15:00:00 8,4 6,8 22 12 36 19 ZW 1015,2 10
17.01.2020 14:00:00 8,2 6,6 22 12 32 18 ZZW 1015,5 10
17.01.2020 13:00:00 7,9 6,5 26 14 - - ZZW 1015,6 10
17.01.2020 12:00:00 8,0 5,9 24 13 40 21 ZZW 1015,8 10
17.01.2020 11:00:00 8,8 4,7 26 14 40 21 Z 1015,7 10
17.01.2020 10:00:00 9,0 3,8 24 13 - - Z 1015,7 10
17.01.2020 09:00:00 8,8 3,8 18 10 40 21 Z 1016,0 10
17.01.2020 08:00:00 8,8 3,7 24 13 40 21 Z 1015,6 10
17.01.2020 07:00:00 8,7 3,4 15 8 - - Z 1015,9 10
17.01.2020 06:00:00 8,9 3,7 16 9 32 18 Z 1016,0 10
17.01.2020 05:00:00 8,9 3,3 18 10 32 18 Z 1016,6 10
17.01.2020 04:00:00 8,9 3,5 22 12 - - Z 1016,9 10
17.01.2020 03:00:00 9,3 3,5 26 14 36 19 Z 1017,6 10
17.01.2020 02:00:00 9,1 3,3 18 10 36 19 ZZO 1018,5 10
17.01.2020 01:00:00 9,5 3,1 22 12 - - Z 1018,9 10
17.01.2020 00:00:00 9,6 3,3 26 14 40 21 Z 1019,0 10
16.01.2020 23:00:00 10,1 4,0 28 15 47 25 Z 1019,3 10
16.01.2020 22:00:00 10,4 4,5 29 16 - - Z 1019,4 10
16.01.2020 21:00:00 10,5 5,4 26 14 40 21 Z 1020,1 10
16.01.2020 20:00:00 10,1 5,5 21 11 40 21 ZZO 1021,0 10
16.01.2020 19:00:00 10,5 5,4 26 14 - - Z 1021,4 10
16.01.2020 18:00:00 10,5 5,3 21 11 36 19 ZZO 1021,7 10
16.01.2020 17:00:00 10,6 5,6 21 11 32 18 Z 1021,9 10
16.01.2020 16:00:00 11,3 6,0 21 11 - - Z 1022,5 10
16.01.2020 15:00:00 11,4 5,7 22 12 36 19 Z 1022,8 10
16.01.2020 14:00:00 10,7 5,6 24 13 43 23 Z 1023,7 10
16.01.2020 13:00:00 10,4 5,9 26 14 - - Z 1024,7 10
16.01.2020 12:00:00 9,3 5,6 18 10 40 21 Z 1025,6 10
16.01.2020 11:00:00 7,7 5,4 13 7 29 16 ZZO 1025,8 10
16.01.2020 10:00:00 6,6 4,6 15 8 - - ZZO 1026,1 10
16.01.2020 09:00:00 5,2 3,8 16 9 22 12 Z 1026,4 10
16.01.2020 08:00:00 4,9 3,6 13 7 32 18 Z 1026,3 10
16.01.2020 07:00:00 4,5 3,2 11 6 - - ZZO 1026,1 10
16.01.2020 06:00:00 4,4 3,3 11 6 25 14 ZO 1026,2 10
16.01.2020 05:00:00 5,7 4,1 11 6 18 10 Z 1026,0 10
16.01.2020 04:00:00 5,5 3,9 11 6 - - Z 1025,8 10
16.01.2020 03:00:00 5,8 4,6 9 5 22 12 Z 1025,4 10
16.01.2020 02:00:00 6,3 4,9 13 7 18 10 ZW 1024,7 10
16.01.2020 01:00:00 5,9 4,8 13 7 - - ZW 1024,3 10

tt = temperatuur
td = dauwpunt
ff = windsnelheid
fx = windstoten
dd = windrichting
ppp = luchtdruk
vv = zicht

Weerstations in de omgeving